Year,Month,Day,Hour,Minute,Value (Times are PST for temperature in C)
2016,07,22,00,00,17.90
2016,07,22,00,01,18.00
2016,07,22,00,02,18.00
2016,07,22,00,03,18.10
2016,07,22,00,04,18.10
2016,07,22,00,05,18.10
2016,07,22,00,06,18.10
2016,07,22,00,07,18.10
2016,07,22,00,08,18.10
2016,07,22,00,09,18.10
2016,07,22,00,10,18.00
2016,07,22,00,11,18.00
2016,07,22,00,12,18.00
2016,07,22,00,13,18.00
2016,07,22,00,14,17.90
2016,07,22,00,15,17.90
2016,07,22,00,16,17.90
2016,07,22,00,17,17.90
2016,07,22,00,18,17.90
2016,07,22,00,19,17.90
2016,07,22,00,20,17.90
2016,07,22,00,21,17.80
2016,07,22,00,22,17.80
2016,07,22,00,23,17.80
2016,07,22,00,24,17.80
2016,07,22,00,25,17.80
2016,07,22,00,26,17.70
2016,07,22,00,27,17.70
2016,07,22,00,28,17.70
2016,07,22,00,29,17.70
2016,07,22,00,30,17.60
2016,07,22,00,31,17.60
2016,07,22,00,32,17.60
2016,07,22,00,33,17.60
2016,07,22,00,34,17.50
2016,07,22,00,35,17.50
2016,07,22,00,36,17.40
2016,07,22,00,37,17.40
2016,07,22,00,38,17.40
2016,07,22,00,39,17.30
2016,07,22,00,40,17.30
2016,07,22,00,41,17.30
2016,07,22,00,42,17.30
2016,07,22,00,43,17.30
2016,07,22,00,44,17.20
2016,07,22,00,45,17.20
2016,07,22,00,46,17.20
2016,07,22,00,47,17.20
2016,07,22,00,48,17.20
2016,07,22,00,49,17.20
2016,07,22,00,50,17.30
2016,07,22,00,51,17.30
2016,07,22,00,52,17.30
2016,07,22,00,53,17.30
2016,07,22,00,54,17.30
2016,07,22,00,55,17.30
2016,07,22,00,56,17.30
2016,07,22,00,57,17.30
2016,07,22,00,58,17.30
2016,07,22,00,59,17.30
2016,07,22,01,00,17.30
2016,07,22,01,01,17.30
2016,07,22,01,02,17.30
2016,07,22,01,03,17.40
2016,07,22,01,04,17.40
2016,07,22,01,05,17.40
2016,07,22,01,06,17.40
2016,07,22,01,07,17.40
2016,07,22,01,08,17.40
2016,07,22,01,09,17.40
2016,07,22,01,10,17.40
2016,07,22,01,11,17.40
2016,07,22,01,12,17.30
2016,07,22,01,13,17.30
2016,07,22,01,14,17.30
2016,07,22,01,15,17.30
2016,07,22,01,16,17.20
2016,07,22,01,17,17.20
2016,07,22,01,18,17.20
2016,07,22,01,19,17.10
2016,07,22,01,20,17.10
2016,07,22,01,21,17.10
2016,07,22,01,22,17.10
2016,07,22,01,23,17.10
2016,07,22,01,24,17.10
2016,07,22,01,25,17.00
2016,07,22,01,26,17.00
2016,07,22,01,27,17.00
2016,07,22,01,28,17.00
2016,07,22,01,29,16.90
2016,07,22,01,30,16.90
2016,07,22,01,31,16.80
2016,07,22,01,32,16.80
2016,07,22,01,33,16.80
2016,07,22,01,34,16.70
2016,07,22,01,35,16.70
2016,07,22,01,36,16.70
2016,07,22,01,37,16.70
2016,07,22,01,38,16.60
2016,07,22,01,39,16.60
2016,07,22,01,40,16.60
2016,07,22,01,41,16.60
2016,07,22,01,42,16.60
2016,07,22,01,43,16.50
2016,07,22,01,44,16.50
2016,07,22,01,45,16.50
2016,07,22,01,46,16.50
2016,07,22,01,47,16.40
2016,07,22,01,48,16.40
2016,07,22,01,49,16.40
2016,07,22,01,50,16.40
2016,07,22,01,51,16.40
2016,07,22,01,52,16.40
2016,07,22,01,53,16.40
2016,07,22,01,54,16.40
2016,07,22,01,55,16.40
2016,07,22,01,56,16.40
2016,07,22,01,57,16.40
2016,07,22,01,58,16.40
2016,07,22,01,59,16.30
2016,07,22,02,00,16.30
2016,07,22,02,01,16.30
2016,07,22,02,02,16.30
2016,07,22,02,03,16.30
2016,07,22,02,04,16.30
2016,07,22,02,05,16.30
2016,07,22,02,06,16.30
2016,07,22,02,07,16.30
2016,07,22,02,08,16.20
2016,07,22,02,09,16.20
2016,07,22,02,10,16.20
2016,07,22,02,11,16.30
2016,07,22,02,12,16.30
2016,07,22,02,13,16.30
2016,07,22,02,14,16.30
2016,07,22,02,15,16.30
2016,07,22,02,16,16.30
2016,07,22,02,17,16.40
2016,07,22,02,18,16.40
2016,07,22,02,19,16.40
2016,07,22,02,20,16.50
2016,07,22,02,21,16.50
2016,07,22,02,22,16.50
2016,07,22,02,23,16.50
2016,07,22,02,24,16.50
2016,07,22,02,25,16.60
2016,07,22,02,26,16.60
2016,07,22,02,27,16.60
2016,07,22,02,28,16.60
2016,07,22,02,29,16.60
2016,07,22,02,30,16.60
2016,07,22,02,31,16.70
2016,07,22,02,32,16.70
2016,07,22,02,33,16.80
2016,07,22,02,34,16.80
2016,07,22,02,35,16.80
2016,07,22,02,36,16.80
2016,07,22,02,37,16.80
2016,07,22,02,38,16.80
2016,07,22,02,39,16.80
2016,07,22,02,40,16.70
2016,07,22,02,41,16.70
2016,07,22,02,42,16.70
2016,07,22,02,43,16.70
2016,07,22,02,44,16.70
2016,07,22,02,45,16.70
2016,07,22,02,46,16.70
2016,07,22,02,47,16.70
2016,07,22,02,48,16.70
2016,07,22,02,49,16.60
2016,07,22,02,50,16.60
2016,07,22,02,51,16.50
2016,07,22,02,52,16.60
2016,07,22,02,53,16.50
2016,07,22,02,54,16.50
2016,07,22,02,55,16.50
2016,07,22,02,56,16.50
2016,07,22,02,57,16.40
2016,07,22,02,58,16.40
2016,07,22,02,59,16.40
2016,07,22,03,00,16.40
2016,07,22,03,01,16.40
2016,07,22,03,02,16.30
2016,07,22,03,03,16.30
2016,07,22,03,04,16.30
2016,07,22,03,05,16.30
2016,07,22,03,06,16.20
2016,07,22,03,07,16.20
2016,07,22,03,08,16.20
2016,07,22,03,09,16.20
2016,07,22,03,10,16.10
2016,07,22,03,11,16.10
2016,07,22,03,12,16.10
2016,07,22,03,13,16.00
2016,07,22,03,14,16.00
2016,07,22,03,15,16.00
2016,07,22,03,16,16.00
2016,07,22,03,17,16.00
2016,07,22,03,18,16.10
2016,07,22,03,19,16.10
2016,07,22,03,20,16.00
2016,07,22,03,21,16.00
2016,07,22,03,22,16.00
2016,07,22,03,23,16.00
2016,07,22,03,24,15.90
2016,07,22,03,25,15.90
2016,07,22,03,26,15.90
2016,07,22,03,27,15.80
2016,07,22,03,28,15.80
2016,07,22,03,29,15.80
2016,07,22,03,30,15.80
2016,07,22,03,31,15.70
2016,07,22,03,32,15.70
2016,07,22,03,33,15.70
2016,07,22,03,34,15.70
2016,07,22,03,35,15.70
2016,07,22,03,36,15.70
2016,07,22,03,37,15.70
2016,07,22,03,38,15.60
2016,07,22,03,39,15.60
2016,07,22,03,40,15.60
2016,07,22,03,41,15.60
2016,07,22,03,42,15.60
2016,07,22,03,43,15.50
2016,07,22,03,44,15.50
2016,07,22,03,45,15.50
2016,07,22,03,46,15.50
2016,07,22,03,47,15.50
2016,07,22,03,48,15.50
2016,07,22,03,49,15.50
2016,07,22,03,50,15.50
2016,07,22,03,51,15.50
2016,07,22,03,52,15.50
2016,07,22,03,53,15.50
2016,07,22,03,54,15.50
2016,07,22,03,55,15.50
2016,07,22,03,56,15.50
2016,07,22,03,57,15.40
2016,07,22,03,58,15.40
2016,07,22,03,59,15.40
2016,07,22,04,00,15.50
2016,07,22,04,01,15.50
2016,07,22,04,02,15.60
2016,07,22,04,03,15.70
2016,07,22,04,04,15.70
2016,07,22,04,05,15.70
2016,07,22,04,06,15.60
2016,07,22,04,07,15.60
2016,07,22,04,08,15.60
2016,07,22,04,09,15.60
2016,07,22,04,10,15.60
2016,07,22,04,11,15.60
2016,07,22,04,12,15.60
2016,07,22,04,13,15.70
2016,07,22,04,14,15.70
2016,07,22,04,15,15.70
2016,07,22,04,16,15.70
2016,07,22,04,17,15.80
2016,07,22,04,18,15.80
2016,07,22,04,19,15.80
2016,07,22,04,20,15.80
2016,07,22,04,21,15.80
2016,07,22,04,22,15.80
2016,07,22,04,23,15.80
2016,07,22,04,24,15.80
2016,07,22,04,25,15.80
2016,07,22,04,26,15.80
2016,07,22,04,27,15.80
2016,07,22,04,28,15.80
2016,07,22,04,29,15.80
2016,07,22,04,30,15.70
2016,07,22,04,31,15.70
2016,07,22,04,32,15.70
2016,07,22,04,33,15.70
2016,07,22,04,34,15.70
2016,07,22,04,35,15.70
2016,07,22,04,36,15.70
2016,07,22,04,37,15.70
2016,07,22,04,38,15.70
2016,07,22,04,39,15.70
2016,07,22,04,40,15.70
2016,07,22,04,41,15.60
2016,07,22,04,42,15.60
2016,07,22,04,43,15.60
2016,07,22,04,44,15.60
2016,07,22,04,45,15.60
2016,07,22,04,46,15.60
2016,07,22,04,47,15.60
2016,07,22,04,48,15.60
2016,07,22,04,49,15.60
2016,07,22,04,50,15.60
2016,07,22,04,51,15.60
2016,07,22,04,52,15.70
2016,07,22,04,53,15.70
2016,07,22,04,54,15.70
2016,07,22,04,55,15.60
2016,07,22,04,56,15.60
2016,07,22,04,57,15.60
2016,07,22,04,58,15.60
2016,07,22,04,59,15.60
2016,07,22,05,00,15.60
2016,07,22,05,01,15.50
2016,07,22,05,02,15.50
2016,07,22,05,03,15.50
2016,07,22,05,04,15.50
2016,07,22,05,05,15.50
2016,07,22,05,06,15.50
2016,07,22,05,07,15.50
2016,07,22,05,08,15.50
2016,07,22,05,09,15.50
2016,07,22,05,10,15.40
2016,07,22,05,11,15.40
2016,07,22,05,12,15.40
2016,07,22,05,13,15.40
2016,07,22,05,14,15.50
2016,07,22,05,15,15.50
2016,07,22,05,16,15.50
2016,07,22,05,17,15.60
2016,07,22,05,18,15.60
2016,07,22,05,19,15.70
2016,07,22,05,20,15.70
2016,07,22,05,21,15.70
2016,07,22,05,22,15.80
2016,07,22,05,23,15.80
2016,07,22,05,24,15.80
2016,07,22,05,25,15.80
2016,07,22,05,26,15.90
2016,07,22,05,27,15.90
2016,07,22,05,28,15.90
2016,07,22,05,29,16.00
2016,07,22,05,30,16.00
2016,07,22,05,31,16.00
2016,07,22,05,32,16.10
2016,07,22,05,33,16.10
2016,07,22,05,34,16.10
2016,07,22,05,35,16.10
2016,07,22,05,36,16.10
2016,07,22,05,37,16.20
2016,07,22,05,38,16.20
2016,07,22,05,39,16.20
2016,07,22,05,40,16.20
2016,07,22,05,41,16.30
2016,07,22,05,42,16.30
2016,07,22,05,43,16.30
2016,07,22,05,44,16.30
2016,07,22,05,45,16.30
2016,07,22,05,46,16.30
2016,07,22,05,47,16.30
2016,07,22,05,48,16.30
2016,07,22,05,49,16.30
2016,07,22,05,50,16.30
2016,07,22,05,51,16.30
2016,07,22,05,52,16.30
2016,07,22,05,53,16.30
2016,07,22,05,54,16.40
2016,07,22,05,55,16.40
2016,07,22,05,56,16.40
2016,07,22,05,57,16.40
2016,07,22,05,58,16.40
2016,07,22,05,59,16.40
2016,07,22,06,00,16.40
2016,07,22,06,01,16.40
2016,07,22,06,02,16.40
2016,07,22,06,03,16.40
2016,07,22,06,04,16.40
2016,07,22,06,05,16.40
2016,07,22,06,06,16.40
2016,07,22,06,07,16.40
2016,07,22,06,08,16.40
2016,07,22,06,09,16.40
2016,07,22,06,10,16.40
2016,07,22,06,11,16.40
2016,07,22,06,12,16.40
2016,07,22,06,13,16.40
2016,07,22,06,14,16.40
2016,07,22,06,15,16.40
2016,07,22,06,16,16.40
2016,07,22,06,17,16.40
2016,07,22,06,18,16.40
2016,07,22,06,19,16.40
2016,07,22,06,20,16.40
2016,07,22,06,21,16.40
2016,07,22,06,22,16.50
2016,07,22,06,23,16.50
2016,07,22,06,24,16.50
2016,07,22,06,25,16.50
2016,07,22,06,26,16.50
2016,07,22,06,27,16.50
2016,07,22,06,28,16.50
2016,07,22,06,29,16.50
2016,07,22,06,30,16.50
2016,07,22,06,31,16.60
2016,07,22,06,32,16.60
2016,07,22,06,33,16.60
2016,07,22,06,34,16.60
2016,07,22,06,35,16.60
2016,07,22,06,36,16.60
2016,07,22,06,37,16.60
2016,07,22,06,38,16.60
2016,07,22,06,39,16.60
2016,07,22,06,40,16.60
2016,07,22,06,41,16.70
2016,07,22,06,42,16.70
2016,07,22,06,43,16.70
2016,07,22,06,44,16.70
2016,07,22,06,45,16.70
2016,07,22,06,46,16.70
2016,07,22,06,47,16.70
2016,07,22,06,48,16.70
2016,07,22,06,49,16.80
2016,07,22,06,50,16.80
2016,07,22,06,51,16.80
2016,07,22,06,52,16.80
2016,07,22,06,53,16.80
2016,07,22,06,54,16.80
2016,07,22,06,55,16.80
2016,07,22,06,56,16.80
2016,07,22,06,57,16.80
2016,07,22,06,58,16.80
2016,07,22,06,59,16.80
2016,07,22,07,00,16.80
2016,07,22,07,01,16.80
2016,07,22,07,02,16.80
2016,07,22,07,03,16.80
2016,07,22,07,04,16.80
2016,07,22,07,05,16.80
2016,07,22,07,06,16.80
2016,07,22,07,07,16.80
2016,07,22,07,08,16.80
2016,07,22,07,09,16.80
2016,07,22,07,10,16.80
2016,07,22,07,11,16.80
2016,07,22,07,12,16.80
2016,07,22,07,13,16.80
2016,07,22,07,14,16.80
2016,07,22,07,15,16.80
2016,07,22,07,16,16.80
2016,07,22,07,17,16.80
2016,07,22,07,18,16.80
2016,07,22,07,19,16.80
2016,07,22,07,20,16.80
2016,07,22,07,21,16.80
2016,07,22,07,22,16.80
2016,07,22,07,23,16.80
2016,07,22,07,24,16.80
2016,07,22,07,25,16.80
2016,07,22,07,26,16.80
2016,07,22,07,27,16.80
2016,07,22,07,28,16.80
2016,07,22,07,29,16.80
2016,07,22,07,30,16.80
2016,07,22,07,31,16.80
2016,07,22,07,32,16.80
2016,07,22,07,33,16.80
2016,07,22,07,34,16.80
2016,07,22,07,35,16.80
2016,07,22,07,36,16.80
2016,07,22,07,37,16.80
2016,07,22,07,38,16.80
2016,07,22,07,39,16.80
2016,07,22,07,40,16.80
2016,07,22,07,41,16.80
2016,07,22,07,42,16.90
2016,07,22,07,43,16.90
2016,07,22,07,44,16.90
2016,07,22,07,45,16.90
2016,07,22,07,46,16.90
2016,07,22,07,47,16.90
2016,07,22,07,48,16.90
2016,07,22,07,49,16.90
2016,07,22,07,50,17.00
2016,07,22,07,51,17.00
2016,07,22,07,52,17.00
2016,07,22,07,53,17.10
2016,07,22,07,54,17.10
2016,07,22,07,55,17.10
2016,07,22,07,56,17.10
2016,07,22,07,57,17.10
2016,07,22,07,58,17.10
2016,07,22,07,59,17.10
2016,07,22,08,00,17.10
2016,07,22,08,01,17.10
2016,07,22,08,02,17.20
2016,07,22,08,03,17.20
2016,07,22,08,04,17.20
2016,07,22,08,05,17.20
2016,07,22,08,06,17.20
2016,07,22,08,07,17.20
2016,07,22,08,08,17.20
2016,07,22,08,09,17.30
2016,07,22,08,10,17.30
2016,07,22,08,11,17.40
2016,07,22,08,12,17.40
2016,07,22,08,13,17.50
2016,07,22,08,14,17.50
2016,07,22,08,15,17.60
2016,07,22,08,16,17.60
2016,07,22,08,17,17.70
2016,07,22,08,18,17.60
2016,07,22,08,19,17.60
2016,07,22,08,20,17.60
2016,07,22,08,21,17.60
2016,07,22,08,22,17.60
2016,07,22,08,23,17.60
2016,07,22,08,24,17.60
2016,07,22,08,25,17.60
2016,07,22,08,26,17.60
2016,07,22,08,27,17.60
2016,07,22,08,28,17.60
2016,07,22,08,29,17.60
2016,07,22,08,30,17.60
2016,07,22,08,31,17.60
2016,07,22,08,32,17.60
2016,07,22,08,33,17.60
2016,07,22,08,34,17.60
2016,07,22,08,35,17.60
2016,07,22,08,36,17.60
2016,07,22,08,37,17.60
2016,07,22,08,38,17.60
2016,07,22,08,39,17.60
2016,07,22,08,40,17.60
2016,07,22,08,41,17.60
2016,07,22,08,42,17.60
2016,07,22,08,43,17.60
2016,07,22,08,44,17.60
2016,07,22,08,45,17.60
2016,07,22,08,46,17.60
2016,07,22,08,47,17.60
2016,07,22,08,48,17.60
2016,07,22,08,49,17.60
2016,07,22,08,50,17.60
2016,07,22,08,51,17.60
2016,07,22,08,52,17.60
2016,07,22,08,53,17.60
2016,07,22,08,54,17.60
2016,07,22,08,55,17.60
2016,07,22,08,56,17.60
2016,07,22,08,57,17.60
2016,07,22,08,58,17.60
2016,07,22,08,59,17.60
2016,07,22,09,00,17.60
2016,07,22,09,01,17.60
2016,07,22,09,02,17.60
2016,07,22,09,03,17.60
2016,07,22,09,04,17.60
2016,07,22,09,05,17.60
2016,07,22,09,06,17.60
2016,07,22,09,07,17.70
2016,07,22,09,08,17.70
2016,07,22,09,09,17.70
2016,07,22,09,10,17.70
2016,07,22,09,11,17.70
2016,07,22,09,12,17.70
2016,07,22,09,13,17.70
2016,07,22,09,14,17.80
2016,07,22,09,15,17.80
2016,07,22,09,16,17.80
2016,07,22,09,17,17.80
2016,07,22,09,18,17.90
2016,07,22,09,19,17.90
2016,07,22,09,20,17.90
2016,07,22,09,21,17.90
2016,07,22,09,22,18.00
2016,07,22,09,23,18.00
2016,07,22,09,24,18.10
2016,07,22,09,25,18.10
2016,07,22,09,26,18.10
2016,07,22,09,27,18.10
2016,07,22,09,28,18.10
2016,07,22,09,29,18.10
2016,07,22,09,30,18.10
2016,07,22,09,31,18.10
2016,07,22,09,32,18.10
2016,07,22,09,33,18.10
2016,07,22,09,34,18.10
2016,07,22,09,35,18.10
2016,07,22,09,36,18.10
2016,07,22,09,37,18.20
2016,07,22,09,38,18.20
2016,07,22,09,39,18.20
2016,07,22,09,40,18.20
2016,07,22,09,41,18.20
2016,07,22,09,42,18.20
2016,07,22,09,43,18.30
2016,07,22,09,44,18.30
2016,07,22,09,45,18.40
2016,07,22,09,46,18.40
2016,07,22,09,47,18.50
2016,07,22,09,48,18.50
2016,07,22,09,49,18.50
2016,07,22,09,50,18.60
2016,07,22,09,51,18.50
2016,07,22,09,52,18.50
2016,07,22,09,53,18.50
2016,07,22,09,54,18.40
2016,07,22,09,55,18.40
2016,07,22,09,56,18.40
2016,07,22,09,57,18.40
2016,07,22,09,58,18.40
2016,07,22,09,59,18.40
2016,07,22,10,00,18.40
2016,07,22,10,01,18.40
2016,07,22,10,02,18.30
2016,07,22,10,03,18.30
2016,07,22,10,04,18.30
2016,07,22,10,05,18.30
2016,07,22,10,06,18.30
2016,07,22,10,07,18.30
2016,07,22,10,08,18.30
2016,07,22,10,09,18.20
2016,07,22,10,10,18.20
2016,07,22,10,11,18.30
2016,07,22,10,12,18.30
2016,07,22,10,13,18.30
2016,07,22,10,14,18.30
2016,07,22,10,15,18.30
2016,07,22,10,16,18.30
2016,07,22,10,17,18.30
2016,07,22,10,18,18.30
2016,07,22,10,19,18.20
2016,07,22,10,20,18.30
2016,07,22,10,21,18.30
2016,07,22,10,22,18.30
2016,07,22,10,23,18.30
2016,07,22,10,24,18.30
2016,07,22,10,25,18.20
2016,07,22,10,26,18.20
2016,07,22,10,27,18.20
2016,07,22,10,28,18.30
2016,07,22,10,29,18.30
2016,07,22,10,30,18.30
2016,07,22,10,31,18.30
2016,07,22,10,32,18.30
2016,07,22,10,33,18.30
2016,07,22,10,34,18.30
2016,07,22,10,35,18.30
2016,07,22,10,36,18.30
2016,07,22,10,37,18.30
2016,07,22,10,38,18.30
2016,07,22,10,39,18.30
2016,07,22,10,40,18.30
2016,07,22,10,41,18.30
2016,07,22,10,42,18.40
2016,07,22,10,43,18.40
2016,07,22,10,44,18.40
2016,07,22,10,45,18.50
2016,07,22,10,46,18.50
2016,07,22,10,47,18.60
2016,07,22,10,48,18.60
2016,07,22,10,49,18.60
2016,07,22,10,50,18.60
2016,07,22,10,51,18.60
2016,07,22,10,52,18.70
2016,07,22,10,53,18.70
2016,07,22,10,54,18.70
2016,07,22,10,55,18.70
2016,07,22,10,56,18.60
2016,07,22,10,57,18.50
2016,07,22,10,58,18.50
2016,07,22,10,59,18.50
2016,07,22,11,00,18.50
2016,07,22,11,01,18.50
2016,07,22,11,02,18.60
2016,07,22,11,03,18.60
2016,07,22,11,04,18.60
2016,07,22,11,05,18.70
2016,07,22,11,06,18.70
2016,07,22,11,07,18.80
2016,07,22,11,08,18.80
2016,07,22,11,09,18.80
2016,07,22,11,10,18.80
2016,07,22,11,11,18.80
2016,07,22,11,12,18.80
2016,07,22,11,13,18.80
2016,07,22,11,14,18.80
2016,07,22,11,15,18.80
2016,07,22,11,16,18.90
2016,07,22,11,17,18.90
2016,07,22,11,18,18.90
2016,07,22,11,19,18.90
2016,07,22,11,20,18.90
2016,07,22,11,21,18.90
2016,07,22,11,22,19.00
2016,07,22,11,23,19.00
2016,07,22,11,24,19.10
2016,07,22,11,25,19.10
2016,07,22,11,26,19.10
2016,07,22,11,27,19.10
2016,07,22,11,28,19.10
2016,07,22,11,29,19.20
2016,07,22,11,30,19.20
2016,07,22,11,31,19.30
2016,07,22,11,32,19.30
2016,07,22,11,33,19.40
2016,07,22,11,34,19.40
2016,07,22,11,35,19.50
2016,07,22,11,36,19.60
2016,07,22,11,37,19.60
2016,07,22,11,38,19.60
2016,07,22,11,39,19.70
2016,07,22,11,40,19.80
2016,07,22,11,41,19.80
2016,07,22,11,42,19.90
2016,07,22,11,43,19.90
2016,07,22,11,44,20.00
2016,07,22,11,45,19.90
2016,07,22,11,46,19.90
2016,07,22,11,47,19.90
2016,07,22,11,48,19.80
2016,07,22,11,49,19.70
2016,07,22,11,50,19.70
2016,07,22,11,51,19.70
2016,07,22,11,52,19.60
2016,07,22,11,53,19.60
2016,07,22,11,54,19.50
2016,07,22,11,55,19.50
2016,07,22,11,56,19.50
2016,07,22,11,57,19.50
2016,07,22,11,58,19.50
2016,07,22,11,59,19.60
2016,07,22,12,00,19.60
2016,07,22,12,01,19.60
2016,07,22,12,02,19.70
2016,07,22,12,03,19.70
2016,07,22,12,04,19.60
2016,07,22,12,05,19.60
2016,07,22,12,06,19.60
2016,07,22,12,07,19.60
2016,07,22,12,08,19.60
2016,07,22,12,09,19.70
2016,07,22,12,10,19.70
2016,07,22,12,11,19.70
2016,07,22,12,12,19.70
2016,07,22,12,13,19.80
2016,07,22,12,14,19.80
2016,07,22,12,15,19.80
2016,07,22,12,16,19.90
2016,07,22,12,17,19.90
2016,07,22,12,18,19.90
2016,07,22,12,19,19.90
2016,07,22,12,20,19.90
2016,07,22,12,21,19.90
2016,07,22,12,22,19.80
2016,07,22,12,23,19.80
2016,07,22,12,24,19.70
2016,07,22,12,25,19.70
2016,07,22,12,26,19.70
2016,07,22,12,27,19.70
2016,07,22,12,28,19.70
2016,07,22,12,29,19.70
2016,07,22,12,30,19.70
2016,07,22,12,31,19.70
2016,07,22,12,32,19.70
2016,07,22,12,33,19.70
2016,07,22,12,34,19.80
2016,07,22,12,35,19.90
2016,07,22,12,36,19.90
2016,07,22,12,37,19.90
2016,07,22,12,38,19.90
2016,07,22,12,39,19.90
2016,07,22,12,40,20.00
2016,07,22,12,41,20.00
2016,07,22,12,42,20.10
2016,07,22,12,43,20.20
2016,07,22,12,44,20.20
2016,07,22,12,45,20.30
2016,07,22,12,46,20.30
2016,07,22,12,47,20.30
2016,07,22,12,48,20.20
2016,07,22,12,49,20.20
2016,07,22,12,50,20.20
2016,07,22,12,51,20.10
2016,07,22,12,52,20.10
2016,07,22,12,53,20.10
2016,07,22,12,54,20.10
2016,07,22,12,55,20.10
2016,07,22,12,56,20.10
2016,07,22,12,57,20.10
2016,07,22,12,58,20.10
2016,07,22,12,59,20.10
2016,07,22,13,00,20.00
2016,07,22,13,01,20.00
2016,07,22,13,02,20.00
2016,07,22,13,03,20.00
2016,07,22,13,04,19.90
2016,07,22,13,05,19.90
2016,07,22,13,06,20.00
2016,07,22,13,07,20.00
2016,07,22,13,08,20.00
2016,07,22,13,09,20.10
2016,07,22,13,10,20.10
2016,07,22,13,11,20.20
2016,07,22,13,12,20.20
2016,07,22,13,13,20.10
2016,07,22,13,14,20.10
2016,07,22,13,15,20.10
2016,07,22,13,16,20.10
2016,07,22,13,17,20.10
2016,07,22,13,18,20.10
2016,07,22,13,19,20.00
2016,07,22,13,20,20.00
2016,07,22,13,21,19.90
2016,07,22,13,22,20.00
2016,07,22,13,23,20.00
2016,07,22,13,24,20.00
2016,07,22,13,25,20.00
2016,07,22,13,26,20.00
2016,07,22,13,27,20.10
2016,07,22,13,28,20.10
2016,07,22,13,29,20.20
2016,07,22,13,30,20.20
2016,07,22,13,31,20.30
2016,07,22,13,32,20.30
2016,07,22,13,33,20.40
2016,07,22,13,34,20.40
2016,07,22,13,35,20.40
2016,07,22,13,36,20.30
2016,07,22,13,37,20.30
2016,07,22,13,38,20.20
2016,07,22,13,39,20.20
2016,07,22,13,40,20.30
2016,07,22,13,41,20.30
2016,07,22,13,42,20.30
2016,07,22,13,43,20.30
2016,07,22,13,44,20.30
2016,07,22,13,45,20.30
2016,07,22,13,46,20.30
2016,07,22,13,47,20.30
2016,07,22,13,48,20.20
2016,07,22,13,49,20.20
2016,07,22,13,50,20.20
2016,07,22,13,51,20.20
2016,07,22,13,52,20.20
2016,07,22,13,53,20.30
2016,07,22,13,54,20.30
2016,07,22,13,55,20.30
2016,07,22,13,56,20.30
2016,07,22,13,57,20.40
2016,07,22,13,58,20.40
2016,07,22,13,59,20.30
2016,07,22,14,00,20.30
2016,07,22,14,01,20.40
2016,07,22,14,02,20.50
2016,07,22,14,03,20.50
2016,07,22,14,04,20.60
2016,07,22,14,05,20.60
2016,07,22,14,06,20.60
2016,07,22,14,07,20.60
2016,07,22,14,08,20.60
2016,07,22,14,09,20.70
2016,07,22,14,10,20.70
2016,07,22,14,11,20.70
2016,07,22,14,12,20.70
2016,07,22,14,13,20.70
2016,07,22,14,14,20.60
2016,07,22,14,15,20.60
2016,07,22,14,16,20.60
2016,07,22,14,17,20.50
2016,07,22,14,18,20.50
2016,07,22,14,19,20.50
2016,07,22,14,20,20.50
2016,07,22,14,21,20.40
2016,07,22,14,22,20.40
2016,07,22,14,23,20.40
2016,07,22,14,24,20.30
2016,07,22,14,25,20.30
2016,07,22,14,26,20.40
2016,07,22,14,27,20.40
2016,07,22,14,28,20.50
2016,07,22,14,29,20.50
2016,07,22,14,30,20.50
2016,07,22,14,31,20.50
2016,07,22,14,32,20.60
2016,07,22,14,33,20.60
2016,07,22,14,34,20.60
2016,07,22,14,35,20.60
2016,07,22,14,36,20.60
2016,07,22,14,37,20.70
2016,07,22,14,38,20.70
2016,07,22,14,39,20.70
2016,07,22,14,40,20.80
2016,07,22,14,41,20.70
2016,07,22,14,42,20.70
2016,07,22,14,43,20.70
2016,07,22,14,44,20.70
2016,07,22,14,45,20.60
2016,07,22,14,46,20.60
2016,07,22,14,47,20.60
2016,07,22,14,48,20.60
2016,07,22,14,49,20.60
2016,07,22,14,50,20.60
2016,07,22,14,51,20.60
2016,07,22,14,52,20.60
2016,07,22,14,53,20.60
2016,07,22,14,54,20.50
2016,07,22,14,55,20.50
2016,07,22,14,56,20.50
2016,07,22,14,57,20.50
2016,07,22,14,58,20.50
2016,07,22,14,59,20.60
2016,07,22,15,00,20.70
2016,07,22,15,01,20.70
2016,07,22,15,02,20.70
2016,07,22,15,03,20.70
2016,07,22,15,04,20.70
2016,07,22,15,05,20.70
2016,07,22,15,06,20.80
2016,07,22,15,07,20.80
2016,07,22,15,08,20.80
2016,07,22,15,09,20.80
2016,07,22,15,10,20.70
2016,07,22,15,11,20.70
2016,07,22,15,12,20.70
2016,07,22,15,13,20.80
2016,07,22,15,14,20.80
2016,07,22,15,15,20.80
2016,07,22,15,16,20.80
2016,07,22,15,17,20.80
2016,07,22,15,18,20.70
2016,07,22,15,19,20.60
2016,07,22,15,20,20.60
2016,07,22,15,21,20.60
2016,07,22,15,22,20.50
2016,07,22,15,23,20.50
2016,07,22,15,24,20.60
2016,07,22,15,25,20.60
2016,07,22,15,26,20.60
2016,07,22,15,27,20.60
2016,07,22,15,28,20.60
2016,07,22,15,29,20.60
2016,07,22,15,30,20.60
2016,07,22,15,31,20.60
2016,07,22,15,32,20.60
2016,07,22,15,33,20.60
2016,07,22,15,34,20.70
2016,07,22,15,35,20.70
2016,07,22,15,36,20.80
2016,07,22,15,37,20.80
2016,07,22,15,38,20.80
2016,07,22,15,39,20.80
2016,07,22,15,40,20.90
2016,07,22,15,41,21.00
2016,07,22,15,42,21.10
2016,07,22,15,43,21.10
2016,07,22,15,44,21.10
2016,07,22,15,45,21.10
2016,07,22,15,46,21.00
2016,07,22,15,47,21.00
2016,07,22,15,48,20.90
2016,07,22,15,49,20.80
2016,07,22,15,50,20.80
2016,07,22,15,51,20.70
2016,07,22,15,52,20.70
2016,07,22,15,53,20.60
2016,07,22,15,54,20.60
2016,07,22,15,55,20.50
2016,07,22,15,56,20.40
2016,07,22,15,57,20.40
2016,07,22,15,58,20.30
2016,07,22,15,59,20.30
2016,07,22,16,00,20.20
2016,07,22,16,01,20.20
2016,07,22,16,02,20.20
2016,07,22,16,03,20.20
2016,07,22,16,04,20.20
2016,07,22,16,05,20.20
2016,07,22,16,06,20.20
2016,07,22,16,07,20.30
2016,07,22,16,08,20.30
2016,07,22,16,09,20.30
2016,07,22,16,10,20.30
2016,07,22,16,11,20.30
2016,07,22,16,12,20.30
2016,07,22,16,13,20.30
2016,07,22,16,14,20.20
2016,07,22,16,15,20.20
2016,07,22,16,16,20.20
2016,07,22,16,17,20.20
2016,07,22,16,18,20.20
2016,07,22,16,19,20.20
2016,07,22,16,20,20.20
2016,07,22,16,21,20.10
2016,07,22,16,22,20.10
2016,07,22,16,23,20.10
2016,07,22,16,24,20.10
2016,07,22,16,25,20.10
2016,07,22,16,26,20.10
2016,07,22,16,27,20.10
2016,07,22,16,28,20.10
2016,07,22,16,29,20.10
2016,07,22,16,30,20.10
2016,07,22,16,31,20.10
2016,07,22,16,32,20.10
2016,07,22,16,33,20.10
2016,07,22,16,34,20.10
2016,07,22,16,35,20.10
2016,07,22,16,36,20.10
2016,07,22,16,37,20.10
2016,07,22,16,38,20.10
2016,07,22,16,39,20.10
2016,07,22,16,40,20.10
2016,07,22,16,41,20.10
2016,07,22,16,42,20.10
2016,07,22,16,43,20.10
2016,07,22,16,44,20.10
2016,07,22,16,45,20.10
2016,07,22,16,46,20.10
2016,07,22,16,47,20.10
2016,07,22,16,48,20.10
2016,07,22,16,49,20.00
2016,07,22,16,50,20.00
2016,07,22,16,51,20.00
2016,07,22,16,52,20.00
2016,07,22,16,53,20.00
2016,07,22,16,54,20.00
2016,07,22,16,55,20.00
2016,07,22,16,56,20.00
2016,07,22,16,57,20.00
2016,07,22,16,58,20.00
2016,07,22,16,59,20.00
2016,07,22,17,00,19.90
2016,07,22,17,01,19.90
2016,07,22,17,02,19.80
2016,07,22,17,03,19.80
2016,07,22,17,04,19.80
2016,07,22,17,05,19.80
2016,07,22,17,06,19.80
2016,07,22,17,07,19.90
2016,07,22,17,08,19.90
2016,07,22,17,09,19.90
2016,07,22,17,10,19.90
2016,07,22,17,11,19.90
2016,07,22,17,12,19.80
2016,07,22,17,13,19.90
2016,07,22,17,14,19.80
2016,07,22,17,15,19.80
2016,07,22,17,16,19.80
2016,07,22,17,17,19.80
2016,07,22,17,18,19.80
2016,07,22,17,19,19.80